#timestamp,LO_Frequency,Hit,StdDev 
1511884815.6,286046993.7,N
1511884835.5,286046993.2,Y
1511884855.3,286046995.0,P
1511884875.1,286046997.9,P
1511884895.9,286047001.0,N
1511884915.7,286047002.8,N
1511884935.5,286047001.6,N
1511884955.3,286047004.2,N
1511884975.2,286047004.4,N
1511884995.0,286047001.7,N
1511884995.9,286047001.7,N
1511885015.7,286047006.9,N
1511885035.6,286047010.1,N
1511885055.4,286047010.6,N
1511885075.2,286047010.4,N
1511885095.1,286047010.7,N
1511885096.0,286047010.7,N
1511885115.8,286047011.1,N
1511885135.6,286047014.8,N
1511885155.5,286047012.8,N
1511885175.3,286047009.6,N
1511885195.1,286047008.5,N
1511885215.9,286047010.2,N
1511885235.7,286047012.1,N
1511885255.5,286047012.9,N
1511885275.3,286047011.7,N
1511885295.2,286047008.3,N
1511885315.0,286047010.2,N
1511885315.9,286047010.2,N
1511885335.7,286047009.9,N
1511885355.6,286047013.8,N
1511885375.4,286047011.1,N
1511885395.2,286047011.9,N
1511885415.1,286047011.5,N
1511885416.0,286047011.5,N
1511885435.8,286047009.6,N
1511885455.6,286047008.6,N
1511885475.5,286047006.6,N
1511885495.3,286047010.3,Y
1511885515.1,286046995.7,P
1511885535.9,286046999.3,N
1511885555.7,286046997.3,N
1511885575.5,286046999.9,N
1511885595.4,286046999.4,N
1511885615.2,286047000.5,N
1511885635.0,286046999.9,N
1511885635.9,286046999.9,N
1511885655.8,286047002.1,N
1511885675.6,286046998.6,N
1511885695.4,286046998.1,N
1511885715.2,286046999.8,N
1511885735.1,286047000.2,N
1511885736.0,286047000.2,N
1511885755.8,286047002.6,N
1511885775.6,286047004.2,N
1511885795.5,286047000.7,N
1511885815.3,286046997.7,N
1511885835.1,286046995.2,N
1511885855.9,286046995.6,N
1511885875.7,286046993.3,N
1511885895.5,286046993.5,N
1511885915.4,286046995.1,N
1511885935.2,286047004.0,N
1511885955.0,286047007.1,N
1511885955.9,286047007.1,N
1511885975.7,286047005.7,N
1511885995.6,286047001.3,N
1511886015.4,286046996.9,N
1511886035.2,286046997.1,N
1511886055.1,286046997.8,N
1511886056.0,286046997.8,N
1511886075.8,286046997.6,N
1511886095.6,286046996.7,N
1511886115.5,286046998.0,N
1511886135.3,286046995.4,N
1511886155.1,286046997.9,N
1511886175.9,286046994.6,N
1511886195.7,286046990.5,N
1511886215.5,286046990.1,N
1511886235.4,286046988.6,N
1511886255.2,286046991.6,N
1511886275.0,286046992.3,N
1511886275.9,286046992.3,N
1511886295.8,286046989.1,N
1511886315.6,286046985.9,N
1511886335.4,286046990.0,N
1511886355.2,286046990.0,N
1511886375.1,286046986.9,N
1511886376.0,286046986.9,N
1511886395.8,286046988.2,N
1511886415.6,286046988.4,N
1511886435.5,286046986.2,N
1511886455.3,286046989.5,N
1511886475.1,286046985.3,N
1511886495.9,286046983.7,N
1511886515.7,286046987.9,N
1511886535.5,286046984.8,Y
1511886555.4,286046987.7,P
1511886575.2,286046988.4,P
1511886595.0,286046988.6,P
1511886595.9,286046988.6,Y
1511886615.8,286047002.0,P
1511886635.6,286046998.4,N
1511886655.4,286046996.6,N
1511886675.3,286046999.3,N
1511886695.1,286046998.5,N
1511886696.0,286046998.5,N
1511886715.8,286047002.7,N
1511886735.7,286047002.4,N
1511886755.5,286047005.4,N
1511886775.3,286047004.1,N
1511886795.1,286046999.8,N
1511886815.9,286047001.0,N
1511886835.7,286047001.8,N
1511886855.5,286047005.1,N
1511886875.4,286047007.5,N
1511886895.2,286047006.3,N
1511886915.0,286047009.8,N
1511886915.9,286047009.8,N
1511886935.8,286047009.7,N
1511886955.6,286047008.6,N
1511886975.4,286047006.6,N
1511886995.3,286047006.8,N
1511887015.1,286047006.3,N
1511887016.0,286047006.3,N
1511887035.8,286047010.5,N
1511887055.7,286047006.5,N
1511887075.5,286047010.1,N
1511887095.3,286047010.3,N
1511887115.1,286047010.6,N
1511887135.9,286047008.2,N
1511887155.7,286047005.1,N
1511887175.5,286047006.5,N
1511887195.4,286047008.2,N
1511887215.2,286047008.2,N
1511887235.0,286047009.8,N
1511887235.9,286047009.8,N
1511887255.8,286047009.8,Y
1511887275.6,286047004.2,P
1511887295.4,286047004.3,P
1511887315.3,286047000.2,N
1511887335.1,286047002.3,N
1511887355.8,286047004.3,N
1511887375.7,286047003.6,N
1511887395.5,286047007.0,Y
1511887415.3,286047001.5,P
1511887435.2,286047003.8,P
1511887455.9,286047001.4,N
1511887475.7,286047000.5,N
1511887495.6,286046999.2,N
1511887515.4,286047002.7,N
1511887535.2,286047001.4,N
1511887555.1,286047001.3,N
1511887556.0,286047001.3,N
1511887575.8,286047003.1,N
1511887595.6,286047005.2,Y
1511887615.5,286047001.4,P
1511887635.3,286046999.7,N
1511887655.1,286047000.2,N
1511887675.9,286047001.2,N
1511887695.7,286047001.2,N
1511887715.5,286046998.2,N
1511887735.3,286047001.0,N
1511887755.2,286047001.9,N
1511887775.0,286047004.2,Y
1511887775.9,286047004.2,P
1511887795.8,286046999.7,N
1511887815.6,286047000.9,N
1511887835.4,286047000.5,N
1511887855.2,286047000.4,N
1511887875.1,286047002.8,N
1511887876.0,286047002.8,N
1511887895.8,286046996.7,N
1511887915.6,286046993.9,N
1511887935.5,286046996.3,N
1511887955.3,286046994.9,N
1511887975.1,286046997.4,N
1511887995.9,286046996.4,N
1511888015.7,286046993.8,N
1511888035.5,286046993.8,N
1511888055.4,286046992.5,N
1511888075.2,286046994.8,N
1511888095.0,286046991.7,N
1511888095.9,286046991.7,N
1511888115.8,286046993.8,N
1511888135.6,286046994.9,N
1511888155.4,286046995.6,N
1511888175.2,286046998.0,N
1511888195.1,286046998.3,N
1511888196.0,286046998.3,N
1511888215.8,286046998.9,N
1511888235.6,286046998.5,N
1511888255.5,286046994.9,N
1511888275.3,286046996.4,N
1511888295.1,286046997.5,N
1511888315.9,286046997.4,N
1511888335.7,286046998.0,N
1511888355.5,286046993.4,N
1511888375.4,286046995.6,N
1511888395.2,286046991.6,Y
